Regional Weather Roundup
Issued by NWS

Home | Current Version | Previous Version | Graphics & Text | Print | Product List | Glossary On
Versions: 1 2 3 4 5 6 7 8 9 10 11 12 13 14 15 16 17 18 19 20 21 22 23 24 25 26 27 28 29 30 31 32 33 34 35 36 37 38 39 40 41 42 43 44 45 46 47 48 49 50
046
ASUS43 KOAX 071010
RWRNE

WEATHER ROUNDUP FOR NEBRASKA
NATIONAL WEATHER SERVICE OMAHA NE
400 AM CST WED DEC 07 2016

NOTES: SATELLITE DATA IS BEING USED TO AUGMENT CLOUD COVER ABOVE
       12000 FEET.
       "FAIR" INDICATES FEW OR NO CLOUDS BELOW 12,000 FEET WITH NO
       SIGNIFICANT WEATHER AND/OR OBSTRUCTIONS TO VISIBILITY.

  * THESE STATIONS DO NOT REPORT WEATHER SUCH AS RAIN...SNOW OR FOG.

NEZ001>004-019>022-054>056-071100-
NEBRASKA PANHANDLE

CITY           SKY/WX    TMP DP  RH WIND       PRES   REMARKS
SCOTTSBLUFF    LGT SNOW  11   5  77 N9        30.11R WCI  -2
ALLIANCE       CLOUDY     9   1  70 N8        30.09S WCI  -3
CHADRON        CLOUDY     8  -1  66 NW12      30.18R WCI  -7
KIMBALL        LGT SNOW  12   9  90 NE13      30.00R WCI  -3
SIDNEY         LGT SNOW  12   8  84 NE12      30.05R FOG     WCI  -2
$$

NEZ057>060-069>072-079>082-071100-
SOUTHWEST NEBRASKA

CITY           SKY/WX    TMP DP  RH WIND       PRES   REMARKS
NORTH PLATTE   CLOUDY    13   1  59 N9        30.17R WCI   1
IMPERIAL       LGT SNOW  15  11  83 NE14      30.12R FOG     WCI   0
LEXINGTON      CLOUDY    17   4  57 N14       30.18R WCI   3
MCCOOK         LGT SNOW  17  13  84 NE16      30.15R VSB 3/4 WCI   2
OGALLALA       CLOUDY    16   5  63 E7        30.12S WCI   6
$$

NEZ005>010-023>029-035>040-094-071100-
NORTH CENTRAL NEBRASKA

CITY           SKY/WX    TMP DP  RH WIND       PRES   REMARKS
VALENTINE      CLOUDY     8  -3  61 NW20      30.18R WCI -11
AINSWORTH      CLOUDY     9   2  74 NW9       30.17S WCI  -5
BROKEN BOW     CLOUDY    13   2  61 N18       30.17R WCI  -4
O`NEILL        CLOUDY    10   3  74 NW12G17   30.19S WCI  -5
ORD            CLOUDY    12   1  61 NW17      30.19S WCI  -5
THEDFORD       CLOUDY    10   2  68 NW10      30.17R WCI  -4
$$

NEZ041-046>049-061>064-073>077-083>087-071100-
SOUTH CENTRAL NEBRASKA

CITY           SKY/WX    TMP DP  RH WIND       PRES   REMARKS
GRAND ISLAND   CLOUDY    15   5  64 N13       30.20S WCI   1
AURORA         CLOUDY    16   6  64 N12       30.19S WCI   3
HASTINGS       CLOUDY    18   6  59 N13       30.19R WCI   5
HEBRON         CLOUDY    23  12  62 N14       30.20R WCI  11
HOLDREGE       CLOUDY    17   5  58 N10G18    30.16S WCI   5
KEARNEY *      CLOUDY    16   1  53 N13       30.18S WCI   2
YORK           CLOUDY    18   9  68 N9        30.19S WCI   6
$$

NEZ011>018-030>034-042>045-071100-
NORTHEAST NEBRASKA

CITY           SKY/WX    TMP DP  RH WIND       PRES   REMARKS
NORFOLK        PTCLDY    12   3  67 NW15      30.17F WCI  -4
ALBION         CLOUDY    13   3  65 NW18G26   30.18F WCI  -4
BLAIR          MOCLDY    17  10  72 NW7       30.19R WCI   8
FREMONT        PTCLDY    15  10  78 NW13      30.21S WCI   1
TEKAMAH        CLOUDY    16   7  67 NW17      30.21R WCI   0
WAYNE          CLOUDY    12   6  75 NW10G16   30.20R WCI  -1
$$

NEZ050>053-065>068-078-088>093-071100-
SOUTHEAST NEBRASKA

CITY           SKY/WX    TMP DP  RH WIND       PRES   REMARKS
LINCOLN        CLOUDY    21   9  59 NW14      30.23R WCI   8
OMAHA EPPLEY   MOCLDY    18   9  68 N9        30.21R WCI   7
BEATRICE       CLOUDY    24  15  68 N8        30.19R WCI  15
FALLS CITY     CLOUDY    24  14  65 N3        30.19F
NEBRASKA CITY  CLOUDY    22   8  53 NW12      30.19R WCI  11
PLATTSMOUTH    CLOUDY    21   7  54 NW12      30.20R WCI   9
$$

NEZ044-045-051>053-067-071100-
OMAHA AREA

CITY           SKY/WX    TMP DP  RH WIND       PRES   REMARKS
OMAHA EPPLEY   MOCLDY    18   9  68 N9        30.21R WCI   7
BLAIR          MOCLDY    17  10  72 NW7       30.19R WCI   8
FREMONT        PTCLDY    15  10  78 NW13      30.21S WCI   1
MILLARD        CLOUDY    20   9  61 NW7       30.22R WCI  11
OFFUTT AFB     CLOUDY    19   8  62 NW8       30.21R WCI   9
PLATTSMOUTH    CLOUDY    21   7  54 NW12      30.20R WCI   9
WAHOO          FAIR      17   8  68 NW9       30.21S WCI   5
$$




USA.gov is the U.S. government's official web portal to all federal, state and local government web resources and services.